TimeAKST,TemperatureF,Dew PointF,Humidity,Sea Level PressureIn,VisibilityMPH,Wind Direction,Wind SpeedMPH,Gust SpeedMPH,PrecipitationIn,Events,Conditions,WindDirDegrees,DateUTC
12:56 AM,44.1,39.9,85,29.84,10.0,NE,5.8,-,0.00,Rain,Light Rain,40,2013-12-10 09:56:00
1:56 AM,43.0,39.9,89,29.84,10.0,North,4.6,-,0.00,Rain,Light Rain,350,2013-12-10 10:56:00
2:56 AM,43.0,39.9,89,29.84,10.0,North,9.2,-,0.00,Rain,Light Rain,360,2013-12-10 11:56:00
3:28 AM,42.8,39.2,87,29.82,9.0,NNW,12.7,-,0.00,Rain,Light Rain,330,2013-12-10 12:28:00
3:36 AM,42.8,39.2,87,29.83,7.0,North,10.4,-,0.00,Rain,Light Rain,350,2013-12-10 12:36:00
3:50 AM,42.8,39.2,87,29.83,8.0,North,10.4,-,0.00,Rain,Light Rain,350,2013-12-10 12:50:00
3:56 AM,43.0,39.9,89,29.84,9.0,North,11.5,-,0.00,Rain,Light Rain,350,2013-12-10 12:56:00
4:56 AM,43.0,39.9,89,29.83,10.0,Variable,3.5,18.4,0.00,Rain,Light Rain,0,2013-12-10 13:56:00
5:43 AM,42.8,39.2,87,29.81,10.0,NNW,9.2,-,0.00,Rain,Light Rain,330,2013-12-10 14:43:00
5:56 AM,43.0,39.0,86,29.83,10.0,Variable,6.9,20.7,0.00,Rain,Light Rain,0,2013-12-10 14:56:00
6:56 AM,43.0,39.0,86,29.83,10.0,NW,8.1,-,0.00,Rain,Light Rain,310,2013-12-10 15:56:00
7:56 AM,43.0,39.0,86,29.82,10.0,Variable,6.9,-,0.00,Rain,Light Rain,0,2013-12-10 16:56:00
8:50 AM,44.6,37.4,76,29.80,10.0,Variable,5.8,-,0.00,,Overcast,0,2013-12-10 17:50:00
8:56 AM,44.1,37.0,76,29.82,10.0,NNW,8.1,-,0.00,,Overcast,330,2013-12-10 17:56:00
9:26 AM,42.8,37.4,81,29.80,10.0,NNW,9.2,17.3,N/A,,Overcast,340,2013-12-10 18:26:00
9:56 AM,43.0,39.0,86,29.81,10.0,NNW,12.7,21.9,0.00,Rain,Light Rain,340,2013-12-10 18:56:00
10:56 AM,43.0,39.0,86,29.81,10.0,NNW,11.5,21.9,0.00,Rain,Light Rain,340,2013-12-10 19:56:00
11:56 AM,42.1,39.0,89,29.81,7.0,North,12.7,24.2,0.00,Rain,Light Rain,350,2013-12-10 20:56:00
12:56 PM,42.1,39.0,89,29.81,6.0,NNW,15.0,-,0.00,Rain,Light Rain,330,2013-12-10 21:56:00
1:08 PM,42.8,39.2,87,29.79,3.0,NNW,16.1,-,0.00,Rain,Light Rain,340,2013-12-10 22:08:00
1:40 PM,42.8,39.2,87,29.79,2.0,NNW,15.0,-,0.00,Rain,Light Rain,330,2013-12-10 22:40:00
1:56 PM,42.1,39.9,92,29.80,2.0,NNW,19.6,-,0.00,Rain,Light Rain,340,2013-12-10 22:56:00
2:56 PM,42.1,39.0,89,29.80,6.0,North,11.5,-,0.00,Rain,Light Rain,360,2013-12-10 23:56:00
3:04 PM,41.0,39.2,93,29.78,7.0,NNW,17.3,20.7,0.00,Rain,Light Rain,330,2013-12-11 00:04:00
3:56 PM,41.0,39.0,93,29.80,7.0,North,12.7,-,0.00,Rain,Light Rain,350,2013-12-11 00:56:00
4:56 PM,42.1,39.0,89,29.80,7.0,North,16.1,-,0.00,Rain,Light Rain,10,2013-12-11 01:56:00
5:56 PM,41.0,39.0,93,29.80,7.0,NNW,16.1,20.7,0.00,Rain,Light Rain,330,2013-12-11 02:56:00
6:56 PM,41.0,37.9,89,29.82,10.0,NNW,13.8,26.5,0.00,Rain,Light Rain,340,2013-12-11 03:56:00
7:56 PM,39.9,37.0,89,29.83,7.0,NNW,11.5,25.3,0.00,Rain,Light Rain,330,2013-12-11 04:56:00
8:56 PM,39.9,37.9,93,29.83,5.0,North,16.1,27.6,0.00,Rain,Light Rain,10,2013-12-11 05:56:00
9:14 PM,41.0,37.4,87,29.81,8.0,NNW,13.8,27.6,0.00,Rain,Light Rain,340,2013-12-11 06:14:00
9:56 PM,41.0,37.9,89,29.83,9.0,NNW,19.6,-,0.00,Rain,Light Rain,330,2013-12-11 06:56:00
10:56 PM,41.0,37.9,89,29.85,8.0,NNW,10.4,16.1,0.00,Rain,Light Rain,330,2013-12-11 07:56:00
11:08 PM,41.0,37.4,87,29.84,10.0,NNW,11.5,18.4,0.00,,Overcast,340,2013-12-11 08:08:00
11:45 PM,39.2,37.4,93,29.84,3.0,NNW,8.1,23.0,0.00,Rain,Light Rain,330,2013-12-11 08:45:00
11:53 PM,39.2,37.4,93,29.84,2.5,NNW,11.5,-,0.00,Rain,Light Rain,330,2013-12-11 08:53:00
11:56 PM,39.9,37.9,93,29.86,3.0,North,11.5,-,0.00,Rain,Light Rain,350,2013-12-11 08:56:00